Dewpoint
71 71 71 70 71 70 69 69 70 69 69 69 69 69 69 71 70 71 70 72 72 73 74 73 75 74 75 74 74 74 74 74 74 74 73 73 73 73 73 73 73 73 74
72 71 71 71 71 71 70 69 70 71 70 70 70 69 70 69 70 71 70 70 73 74 74 73 75 74 75 74 74 75 75 74 75 75 75 75 75 74 73 73 73 73 73
72 72 71 70 71 71 71 71 70 70 71 71 71 71 71 70 69 70 70 70 71 75 75 73 74 75 75 75 75 76 76 75 75 75 75 75 75 75 74 73 73 73 73
73 72 71 71 71 72 72 71 70 70 70 70 70 71 71 70 70 71 71 70 69 68 72 74 74 73 75 75 76 76 76 76 76 75 75 75 76 76 75 74 74 74 74
71 73 72 71 71 72 72 71 71 70 70 70 70 71 71 71 70 69 68 71 69 69 68 72 74 73 74 73 75 76 77 76 75 76 75 75 75 75 75 75 75 74 74
68 70 72 72 73 71 73 71 71 71 71 70 71 71 70 71 70 69 68 68 68 69 69 69 70 71 74 74 74 75 76 76 76 75 75 75 75 74 74 74 75 75 75
73 72 71 71 71 72 71 71 70 71 71 71 70 70 70 71 70 70 70 69 68 68 70 69 69 70 70 74 74 74 75 76 76 76 75 75 75 74 74 74 74 75 75
70 69 69 70 71 70 70 70 71 70 70 70 68 67 66 67 70 69 69 69 69 71 69 70 70 71 71 70 71 74 74 75 76 77 76 75 75 74 74 74 74 74 75
70 70 69 70 70 70 71 71 70 69 68 70 70 68 65 63 66 70 70 69 70 71 71 71 71 70 71 72 72 73 74 73 75 77 76 76 75 75 75 74 74 74 74
69 70 73 71 70 70 70 71 71 70 69 68 69 71 70 68 65 63 68 69 69 70 71 71 70 71 70 72 73 73 74 73 74 74 75 76 76 75 75 75 75 74 74
70 71 71 70 71 71 71 70 70 70 70 69 69 69 70 70 69 67 65 66 68 68 70 71 71 71 72 72 72 72 73 74 73 73 73 73 75 76 76 75 75 75 75
69 69 69 70 70 70 70 70 70 70 70 69 71 71 70 68 67 67 66 66 66 68 70 71 71 72 72 72 73 73 73 73 73 73 73 73 73 74 75 77 77 76 76
67 67 67 67 68 68 69 69 69 69 69 69 70 70 70 70 69 68 67 67 66 68 68 70 71 72 73 72 72 73 73 72 72 72 71 71 72 73 74 74 76 77 77
66 66 67 67 67 67 68 68 69 69 70 69 69 69 70 70 70 70 68 67 64 65 68 68 71 71 72 73 73 73 73 71 72 71 71 71 71 71 72 73 73 75 75
66 68 68 66 66 66 67 67 67 66 67 68 68 68 68 68 68 70 69 69 66 63 64 67 67 71 71 72 72 72 72 71 71 70 70 70 70 71 71 72 71 71 72
67 67 67 66 66 66 66 65 64 64 63 64 66 67 67 68 68 68 68 69 68 67 65 68 69 71 71 73 73 72 72 71 71 71 70 69 69 70 70 71 71 71 71
66 66 67 66 66 66 66 62 61 62 61 61 62 64 65 66 67 68 68 67 67 68 65 66 68 70 70 70 70 72 72 71 71 70 70 69 68 69 69 70 70 70 70
67 66 67 67 66 66 65 62 61 61 60 60 61 62 63 65 65 66 67 66 66 66 65 64 65 67 68 69 70 70 71 72 70 70 68 68 67 67 67 68 68 68 68
68 68 66 66 66 66 65 63 62 61 60 61 61 61 62 62 63 63 64 65 66 66 66 64 64 66 68 69 69 70 70 70 71 70 68 67 66 66 67 66 65 65 65
68 68 67 66 66 66 63 61 61 61 62 62 62 62 61 61 63 63 64 63 64 65 64 64 63 64 65 66 67 66 66 69 70 71 70 68 67 67 67 65 64 65 63
67 67 65 64 63 61 62 61 61 61 61 62 61 60 59 61 61 61 60 62 64 63 63 62 62 62 62 63 63 64 64 65 67 69 70 70 71 71 70 67 68 67 65
66 63 61 57 54 55 61 62 61 60 57 55 55 56 57 58 56 57 57 60 61 61 62 62 62 62 62 62 63 63 63 63 62 69 68 68 71 70 71 71 68 66 65
62 59 59 53 52 52 55 57 55 52 50 50 51 53 54 55 55 52 52 54 55 58 60 61 61 62 62 62 64 64 63 64 64 67 68 66 69 68 70 72 67 65 64
59 58 54 52 50 50 52 51 49 46 45 46 48 49 49 53 54 51 49 47 48 50 52 55 59 62 61 60 61 64 66 65 65 66 67 64 67 67 69 71 66 65 63
59 59 52 50 48 48 51 51 45 43 44 45 46 46 47 48 51 53 50 48 48 48 51 55 58 60 60 60 61 62 62 64 63 62 65 65 64 64 65 68 70 65 62
57 53 52 51 51 48 50 50 47 44 44 44 44 44 49 50 52 52 51 51 50 50 49 50 52 54 56 56 61 62 63 63 62 61 64 64 62 62 61 64 66 68 68
Lifted_Index
-2 -2 -1 -1 -0 -0 -1 -0 -0 -0 -1 -1 -1 -1 -1 -1 -2 -2 -2 -2 -3 -3 -4 -4 -5 -6 -6 -6 -6 -6 -6 -6 -6 -6 -5 -5 -5 -5 -5 -5 -5 -5 -5
-2 -2 -1 -1 -1 -1 -1 -1 -1 -1 -1 -1 -1 -1 -1 -1 -1 -2 -2 -2 -3 -3 -4 -4 -5 -5 -6 -6 -6 -6 -6 -6 -6 -6 -6 -6 -6 -5 -5 -5 -5 -5 -5
-3 -2 -2 -2 -1 -1 -1 -2 -1 -1 -1 -1 -1 -2 -2 -2 -1 -1 -2 -2 -2 -3 -4 -4 -4 -5 -5 -6 -6 -6 -7 -7 -6 -6 -6 -6 -6 -6 -5 -5 -5 -5 -5
-2 -2 -2 -2 -2 -2 -2 -2 -2 -2 -2 -1 -1 -2 -2 -2 -1 -1 -2 -2 -2 -2 -3 -3 -4 -4 -5 -5 -6 -6 -7 -7 -7 -6 -6 -6 -6 -6 -6 -6 -5 -5 -6
-2 -2 -2 -2 -2 -2 -2 -2 -2 -2 -2 -2 -2 -2 -2 -1 -1 -1 -1 -2 -2 -2 -2 -3 -3 -4 -4 -5 -5 -6 -6 -6 -7 -6 -6 -6 -6 -6 -6 -6 -6 -6 -6
-2 -2 -2 -2 -2 -2 -2 -2 -3 -3 -2 -2 -2 -2 -2 -2 -2 -2 -1 -1 -2 -2 -2 -3 -3 -3 -4 -4 -5 -5 -6 -6 -6 -6 -6 -6 -6 -6 -6 -6 -6 -6 -6
-2 -2 -1 -1 -1 -2 -2 -2 -3 -3 -3 -2 -2 -2 -2 -2 -2 -2 -1 -1 -1 -2 -2 -2 -2 -3 -3 -3 -4 -5 -5 -5 -6 -6 -6 -6 -6 -6 -6 -6 -6 -6 -6
-2 -2 -1 -1 -1 -2 -2 -2 -3 -3 -2 -2 -2 -2 -2 -2 -2 -2 -2 -1 -1 -2 -2 -2 -2 -2 -2 -3 -3 -4 -4 -5 -6 -6 -6 -6 -6 -6 -6 -5 -6 -6 -6
-2 -2 -2 -2 -2 -2 -2 -2 -2 -2 -2 -1 -1 -1 -2 -2 -2 -2 -2 -2 -2 -2 -2 -2 -2 -2 -2 -2 -3 -3 -3 -4 -5 -6 -6 -6 -6 -6 -6 -5 -5 -5 -5
-3 -3 -3 -3 -3 -3 -3 -2 -2 -2 -1 -1 -1 -1 -1 -2 -2 -2 -2 -2 -2 -2 -2 -2 -2 -2 -2 -2 -3 -3 -3 -3 -4 -4 -5 -5 -6 -6 -5 -5 -5 -5 -5
-3 -3 -3 -3 -3 -2 -2 -2 -2 -1 -1 -1 -1 -1 -1 -2 -2 -2 -2 -2 -2 -2 -2 -2 -2 -3 -2 -2 -2 -3 -3 -3 -3 -3 -4 -4 -4 -5 -5 -5 -5 -5 -5
-1 -1 -2 -2 -2 -2 -1 -1 -1 -1 -1 -1 -1 -1 -1 -2 -2 -2 -2 -1 -1 -1 -1 -2 -2 -2 -2 -2 -2 -2 -3 -3 -3 -3 -3 -3 -3 -4 -4 -5 -5 -6 -6
0 -0 -0 -0 -0 -0 -0 -1 -1 -1 -1 -1 -1 -1 -1 -1 -1 -1 -1 -1 -1 -1 -1 -1 -2 -2 -2 -2 -2 -2 -2 -3 -3 -3 -2 -2 -2 -3 -3 -4 -5 -6 -6
0 0 0 1 1 1 1 0 0 0 0 -0 -0 -0 -0 -1 -1 -1 -1 -1 -1 -0 -0 -1 -1 -2 -2 -2 -2 -2 -2 -2 -3 -2 -2 -2 -2 -2 -3 -3 -4 -5 -5
-0 -0 0 1 1 1 1 1 2 2 2 2 1 1 0 0 -0 -0 -0 -0 -0 0 -0 -1 -1 -1 -2 -2 -2 -2 -2 -2 -2 -2 -1 -1 -1 -2 -2 -2 -3 -3 -4
-1 -0 0 1 1 1 2 2 4 4 5 4 3 2 1 1 0 0 0 0 0 0 0 -0 -1 -1 -1 -1 -1 -1 -1 -1 -1 -1 -1 -1 -1 -2 -2 -2 -2 -2 -2
-1 -1 -0 0 1 1 2 3 4 5 5 5 5 3 3 2 1 1 1 1 1 1 0 0 0 -0 -0 -0 -0 -1 -1 -1 -1 -1 -1 -1 -1 -1 -2 -2 -2 -2 -2
-2 -1 -0 -0 0 0 1 2 3 4 5 5 5 4 4 3 3 2 2 1 1 1 1 1 1 1 1 1 0 -0 -1 -1 -0 -0 -0 -0 -0 -0 -1 -1 -2 -2 -2
-2 -1 -1 -0 -0 0 0 1 2 3 4 5 5 5 5 4 4 4 3 2 2 1 1 1 1 1 1 1 0 0 -0 -0 -0 -0 -0 -0 0 0 -0 -1 -1 -2 -2
-2 -1 -1 -0 0 0 1 2 3 4 5 5 6 6 6 5 5 5 4 3 3 2 2 1 1 1 1 1 1 1 1 1 0 -1 -1 -0 -0 -0 -1 -1 -1 -1 -2
-1 -0 0 1 2 2 3 4 4 5 5 6 6 7 7 7 6 6 5 5 4 3 3 2 2 1 1 1 1 1 1 1 1 -0 -1 -1 -1 -1 -1 -1 -1 -1 -1
1 1 2 3 4 5 6 6 6 6 6 7 7 8 8 7 7 7 6 6 5 4 3 3 2 2 1 1 1 1 1 0 0 0 -0 -1 -1 -1 -2 -2 -1 -1 -1
3 3 4 5 6 6 7 7 7 8 9 9 9 10 9 9 8 8 7 6 6 5 4 3 3 3 2 2 2 1 0 -0 -0 -0 -1 -1 -1 -1 -1 -1 -1 -1 -1
4 4 5 6 6 7 8 9 10 11 12 12 12 12 12 11 10 9 9 8 7 6 5 5 4 4 4 3 3 2 1 -0 -1 -1 -1 -1 -1 -1 -1 -1 -2 -2 -2
5 5 6 7 8 9 10 12 13 13 14 14 14 14 13 13 11 10 10 9 9 8 7 6 5 5 5 5 4 3 2 1 -0 -1 -1 -1 -1 -1 -1 -1 -1 -1 -1
6 6 7 8 9 11 13 13 13 13 14 14 13 13 13 13 12 11 10 9 9 8 7 6 6 6 6 6 5 4 3 1 -0 -1 -1 -1 -1 -1 -1 -1 -1 -1 -1